Chattanooga, TN

6:07 AM EDT on May 27, 2017 (GMT -0400)
Lovell

Weather History for KCHA - January, 2013

Change the Weather History Date:

Thursday, January 31, 2013

  Actual Average Record
Temperature  
Mean Temperature 42 °F 42 °F  
Max Temperature 48 °F 52 °F 73 °F (2002)
Min Temperature 35 °F 31 °F -10 °F (1966)
Degree Days  
Heating Degree Days 23 23  
Month to date heating degree days 599 764  
Since 1 July heating degree days 1738 2045  
Moisture  
Dew Point 24 °F    
Average Humidity 49    
Maximum Humidity 64    
Minimum Humidity 34    
Precipitation  
Precipitation 0.00 in 0.16 in 3.25 in (1957)
Month to date precipitation 9.74 4.91  
Year to date precipitation 9.74 4.91  
Snow  
Snow 0.00 in 0.00 in - ()
Month to date snowfall 0.0 1.7  
Since 1 July snowfall T 2.0  
Snow Depth 0.00 in    
Sea Level Pressure  
Sea Level Pressure 30.05 in    
Wind  
Wind Speed 12 mph (WSW)    
Max Wind Speed 25 mph    
Max Gust Speed 37 mph    
Visibility 10 miles    
Events      
T = Trace of Precipitation, MM = Missing Value Source: NWS Daily Summary

Daily Weather History Graph

Daily Weather History Graph

Search for Another Location

Airport or City:

Trip Planner

Search our weather history database for the weather conditions in past years. The results will help you decide how hot, cold, wet, or windy it might be!

Date:

Astronomy

Jan. 31, 2013 Rise Set
Actual Time 7:40 AM EST 6:08 PM EST
Civil Twilight 7:13 AM EST 6:35 PM EST
Nautical Twilight 6:43 AM EST 7:05 PM EST
Astronomical Twilight 6:13 AM EST 7:35 PM EST
Moon 10:55 PM EST (1/31) 9:52 AM EST (1/31)
Length of Visible Light 11h 21m
Length of Day
10h 28m
Waning Gibbous, 80% of the Moon is Illuminated
Jan 31
Waning Gibbous
Feb 3
Last Quarter
Feb 10
New
Feb 17
First Quarter
Feb 25
Full

Hourly Weather History & Observations

Time (EST) Temp. Windchill Dew Point Humidity Pressure Visibility Wind Dir Wind Speed Gust Speed Precip Events Conditions
12:53 AM 39.0 °F 28.8 °F 27.0 °F 62% 29.88 in 10.0 mi West 21.9 mph 31.1 mph 0.00 in   Overcast
1:53 AM 37.9 °F 27.9 °F 24.1 °F 57% 29.93 in 10.0 mi West 19.6 mph 24.2 mph N/A   Overcast
2:53 AM 37.9 °F 29.2 °F 24.1 °F 57% 29.95 in 10.0 mi WNW 15.0 mph 23.0 mph N/A   Mostly Cloudy
3:53 AM 37.0 °F 27.0 °F 24.1 °F 59% 29.97 in 10.0 mi WNW 18.4 mph 24.2 mph N/A   Overcast
4:53 AM 36.0 °F 29.0 °F 23.0 °F 59% 29.98 in 10.0 mi West 9.2 mph - N/A   Mostly Cloudy
5:53 AM 36.0 °F 29.0 °F 24.1 °F 62% 29.99 in 10.0 mi West 9.2 mph 24.2 mph N/A   Mostly Cloudy
6:53 AM 36.0 °F 28.5 °F 21.0 °F 55% 30.02 in 10.0 mi West 10.4 mph - N/A   Mostly Cloudy
7:53 AM 36.0 °F 30.3 °F 25.0 °F 64% 30.04 in 10.0 mi SSW 6.9 mph - N/A   Mostly Cloudy
8:53 AM 37.0 °F 30.4 °F 24.1 °F 59% 30.07 in 10.0 mi WSW 9.2 mph - N/A   Mostly Cloudy
9:53 AM 37.0 °F 29.8 °F 23.0 °F 57% 30.11 in 10.0 mi WSW 10.4 mph 17.3 mph N/A   Scattered Clouds
10:53 AM 39.0 °F 30.3 °F 24.1 °F 55% 30.12 in 10.0 mi WNW 16.1 mph 21.9 mph N/A   Scattered Clouds
11:53 AM 39.9 °F 33.4 °F 23.0 °F 51% 30.12 in 10.0 mi West 10.4 mph - N/A   Scattered Clouds
12:53 PM 43.0 °F 36.0 °F 24.1 °F 47% 30.14 in 10.0 mi WSW 13.8 mph 18.4 mph N/A   Scattered Clouds
1:53 PM 45.0 °F 40.1 °F 21.9 °F 40% 30.10 in 10.0 mi West 9.2 mph - N/A   Scattered Clouds
2:53 PM 48.0 °F - 21.9 °F 36% 30.09 in 10.0 mi West 11.5 mph 17.3 mph N/A   Scattered Clouds
3:53 PM 48.0 °F - 21.0 °F 34% 30.09 in 10.0 mi West 13.8 mph 20.7 mph N/A   Partly Cloudy
4:53 PM 48.0 °F - 21.9 °F 36% 30.09 in 10.0 mi WSW 13.8 mph 18.4 mph N/A   Partly Cloudy
5:53 PM 46.9 °F - 23.0 °F 39% 30.07 in 10.0 mi WSW 11.5 mph - N/A   Clear
6:53 PM 44.1 °F 39.0 °F 25.0 °F 47% 30.09 in 10.0 mi SSW 9.2 mph - N/A   Clear
7:53 PM 43.0 °F 39.5 °F 25.0 °F 49% 30.11 in 10.0 mi South 5.8 mph - N/A   Clear
8:53 PM 39.9 °F 36.7 °F 27.0 °F 60% 30.12 in 10.0 mi SSW 4.6 mph - N/A   Clear
9:53 PM 39.9 °F 33.9 °F 27.0 °F 60% 30.10 in 10.0 mi South 9.2 mph - N/A   Clear
10:53 PM 45.0 °F 39.7 °F 26.1 °F 48% 30.10 in 10.0 mi SW 10.4 mph - N/A   Scattered Clouds
11:53 PM 45.0 °F 39.3 °F 26.1 °F 48% 30.10 in 10.0 mi SW 11.5 mph - N/A   Scattered Clouds